Location: Hopewell Observatory
(38.8698°N, 77.6988°W)
Time: 04:42:53
(UTC-04:00)

Daily predictions for brighter satellites

Satellite Brightness Start Highest point End
(mag) Time Altitude Azimuth Time Altitude Azimuth Time Altitude Azimuth
USA 234 3.9 00:06:31 37° SW 00:06:42 37° SW 00:12:42 10° WNW
Cosmos 1943 Rocket 3.4 00:04:07 10° NW 00:08:48 28° WSW 00:09:02 28° WSW
Terra 3.5 00:10:21 24° W 00:10:24 24° W 00:14:14 10° NW
Cosmos 1707 4.2 00:12:54 37° NNW 00:12:54 37° NNW 00:15:28 10° N
Cosmos 1656 Rocket 4.1 00:14:25 10° NNW 00:19:41 50° W 00:19:41 50° W
Cosmos 1408 Rocket 4.4 00:25:49 48° N 00:25:49 48° N 00:29:06 10° N
Lacrosse 5 4.2 00:21:50 10° NNW 00:25:31 20° NNE 00:29:11 10° ENE
ALOS 2 3.6 00:27:55 43° NNE 00:27:55 43° NNE 00:31:09 10° N
Meteor 1-24 Rocket 3.7 00:29:45 84° WSW 00:29:53 85° W 00:35:51 10° N
Cosmos 1763 Rocket 4.4 00:30:04 10° N 00:35:02 40° ENE 00:35:02 40° ENE
Cosmos 1417 Rocket 4.3 00:30:54 10° N 00:37:02 77° W 00:37:13 76° WSW
Cosmos 1818 3.7 00:31:53 10° NNW 00:37:07 67° NE 00:37:07 67° NE
CZ-2C R/B 4.0 00:34:56 10° NE 00:38:49 27° E 00:38:49 27° E
Cosmos 1553 Rocket 3.9 00:35:42 10° N 00:42:05 87° E 00:42:23 82° SSE
CZ-4B R/B 3.7 00:44:24 27° N 00:44:24 27° N 00:46:13 10° N
In-Cosmos 22 4.5 00:51:05 59° ENE 00:51:05 59° ENE 00:56:07 10° NNE
Cosmos 2344 3.5 00:56:45 64° S 00:57:53 74° ESE 01:06:24 10° NE
H-2A R/B 4.1 00:56:39 10° N 00:58:50 29° NNW 00:58:50 29° NNW
CENTAUR R/B 3.3 01:03:42 38° E 01:03:42 38° E 01:08:56 10° NE
Cosmos 2266 Rocket 3.9 01:05:52 79° ESE 01:06:04 81° E 01:12:31 10° N
NOSS 3-3 (A) 4.4 00:59:27 10° NW 01:06:53 65° WSW 01:07:31 63° SW
NOSS 3-3 (C) 4.4 00:59:33 10° NW 01:06:59 66° WSW 01:07:38 63° SW
Cosmos 2369 3.8 01:01:44 10° NNW 01:06:47 69° NW 01:06:47 69° NW
Cosmos 1354 Rocket 4.3 01:10:42 66° NNE 01:10:42 66° NNE 01:15:16 10° NNE
S3M 4.2 01:04:00 10° NNW 01:10:02 55° W 01:10:04 55° W
Cosmos 1867 3.9 01:11:28 59° NW 01:11:28 59° NW 01:16:51 10° NNE
Meteor 1-21 Rocket 4.2 01:12:13 79° NNE 01:12:13 79° NNE 01:17:34 10° N
NOSS 3-2 (C) 4.4 01:11:29 33° W 01:13:36 44° NW 01:19:58 10° NNE
Cosmos 1503 Rocket 4.2 01:15:53 68° NNE 01:15:53 68° NNE 01:20:32 10° NNE
Cosmos 841 Rocket 3.7 01:11:05 10° NNW 01:15:38 67° N 01:15:38 67° N
Meteor 2-20 4.3 01:17:37 78° W 01:17:42 78° W 01:23:54 10° N
ISS 0.3 01:21:26 10° N 01:22:09 11° N 01:22:52 10° NNE
Cosmos 1980 Rocket 3.4 01:20:30 10° N 01:25:40 36° ENE 01:27:02 31° E
CZ-4C R/B 4.0 01:30:35 19° W 01:33:10 27° NW 01:38:13 10° NNE
Meteor 2-2 Rocket 4.2 01:28:53 10° NNW 01:34:22 77° WNW 01:34:22 77° WNW
Cosmos 724 4.4 01:35:20 63° WNW 01:35:32 64° WNW 01:41:23 10° NNE
CZ-2C R/B 3.4 01:40:06 64° E 01:40:18 65° ENE 01:45:58 10° N
Lacrosse 5 rocket 3.9 01:41:58 10° NNW 01:45:17 21° NNE 01:48:42 10° E
Cosmos 1697 Rocket 2.6 01:39:43 10° NNW 01:45:14 82° NNE 01:45:14 82° NNE
Cosmos 2082 Rocket 2.7 01:45:38 49° WNW 01:45:53 49° WNW 01:51:24 10° NNE
Cosmos 1833 Rocket 2.9 01:50:36 58° WNW 01:50:41 58° WNW 01:56:16 10° NNE
ATLAS 5 CENTAUR R/B 4.2 01:55:46 13° E 01:55:46 13° E 01:57:13 10° E
Cosmos 2058 4.0 01:58:15 42° NNE 01:58:15 42° NNE 02:01:09 10° NNE
Cosmos 1726 4.1 01:57:28 10° NNE 01:59:42 27° NE 01:59:42 27° NE
Cosmos 1805 Rocket 4.3 02:02:19 52° NNE 02:02:19 52° NNE 02:05:44 10° N
Cosmos 1633 Rocket 3.8 02:08:56 48° NE 02:08:56 48° NE 02:12:30 10° NNE
Cosmos 1656 4.4 02:03:10 10° NW 02:07:36 42° WNW 02:07:36 42° WNW
Lacrosse 5 2.1 02:04:03 10° NW 02:08:18 63° NNW 02:08:18 63° NNW
Cosmos 2242 Rocket 4.4 02:09:00 10° N 02:12:53 46° ENE 02:12:53 46° ENE
Cosmos 371 Rocket 4.0 02:08:40 10° N 02:13:20 46° ENE 02:13:50 45° E
Cosmos 2151 4.3 02:16:00 33° NW 02:16:00 33° NW 02:18:53 10° N
Cosmos 540 Rocket 3.6 02:09:56 10° NNW 02:14:31 67° NW 02:14:31 67° NW
Cosmos 1707 Rocket 4.2 02:12:47 10° N 02:16:06 52° NNW 02:16:06 52° NNW
Cosmos 2360 4.4 02:11:52 10° NNW 02:17:34 67° ENE 02:18:44 53° ESE
Cosmos 1666 Rocket 4.1 02:19:35 56° N 02:19:35 56° N 02:23:02 10° N
CZ-2C R/B 3.6 02:14:58 10° N 02:19:56 35° WNW 02:20:21 35° WNW
Cosmos 1626 4.4 02:21:49 19° E 02:21:49 19° E 02:24:09 10° NE
USA 215 3.5 02:17:06 10° NE 02:23:23 48° SE 02:24:05 46° SSE
Cosmos 1470 Rocket 4.3 02:29:39 45° E 02:29:39 45° E 02:33:43 10° NNE
SL-16 R/B 3.1 02:24:49 10° N 02:30:15 45° ENE 02:33:31 22° ESE
Cosmos 1933 Rocket 4.2 02:34:01 48° E 02:34:01 48° E 02:38:07 10° NNE
Meteor 1-27 4.2 02:30:35 10° NNW 02:36:23 69° W 02:36:49 66° SW
Cosmos 2322 Rocket 2.6 02:35:37 10° NNW 02:41:11 59° ENE 02:43:42 32° SE
SL-14 R/B 4.4 02:43:23 38° NNW 02:43:23 38° NNW 02:46:03 10° N
Cosmos 1386 Rocket 4.4 02:41:42 59° S 02:43:00 88° E 02:49:11 10° N
AQUA 4.4 02:40:35 10° NNE 02:45:10 46° E 02:45:44 44° ESE
Sich 1 3.7 02:46:25 47° NW 02:46:25 47° NW 02:50:11 10° N
Cosmos 1869 4.4 02:47:48 10° N 02:51:31 37° ENE 02:52:04 35° E
CENTAUR R/B 3.6 02:50:51 27° W 02:53:28 37° NW 02:59:49 10° NNE
Cosmos 1703 3.7 02:54:37 56° NNW 02:54:37 56° NNW 02:57:56 10° N
SEDSat Delta rocket 4.4 02:54:54 42° SSE 02:54:54 42° SSE 03:00:22 10° ESE
Cosmos 1745 Rocket 4.3 02:54:49 47° WSW 02:56:04 53° W 03:02:17 10° N
Cosmos 1271 Rocket 3.0 02:54:51 10° N 02:58:10 62° NNE 02:58:10 62° NNE
CZ-2D R/B 4.3 02:55:39 10° NE 02:59:11 18° E 03:02:41 10° SE
ISS -1.4 02:56:28 10° NW 02:59:25 31° NNE 03:02:21 10° E
Cosmos 968 Rocket 3.8 02:59:41 48° W 03:00:13 50° WNW 03:05:14 10° N
H-2A ROCKET BODY 4.1 02:47:16 10° WSW 03:05:02 - SE 02:52:38 17° WSW
USA 161 4.3 03:03:30 14° NE 03:03:30 14° NE 03:04:22 10° NNE
Nadezhda 1 Rocket 4.0 02:57:17 10° NNW 03:03:17 58° W 03:04:27 50° SW
SL-16 R/B 4.2 02:58:35 10° ESE 03:03:54 30° ENE 03:09:14 10° N
Cosmos 1709 Rocket 4.0 03:05:15 44° S 03:07:28 84° E 03:13:45 10° N
ERS-2 2.6 03:05:36 10° N 03:08:48 54° NW 03:08:48 54° NW
Cosmos 1980 Rocket 3.2 03:04:40 10° NW 03:08:46 29° W 03:08:46 29° W
Meteor 1-4 Rocket 2.9 03:05:52 10° NNW 03:09:08 64° NNW 03:09:08 64° NNW
Cosmos 2360 Rocket 3.6 03:05:15 10° N 03:10:27 37° ENE 03:15:38 10° SE
Cosmos 1862 Rocket 3.4 03:06:10 10° N 03:10:40 87° W 03:11:06 73° S
Meteor 2-10 4.0 03:05:47 10° NNW 03:11:04 72° W 03:12:13 54° SSW
NPP 3.6 03:06:20 10° N 03:11:44 79° WNW 03:13:03 53° SSW
SL-08 R/B 3.3 03:18:21 55° SSW 03:19:18 72° WSW 03:24:14 10° NNW
USA 229 DEB 4.5 03:19:53 26° SSE 03:23:14 43° ESE 03:29:45 10° NE
USA 229 4.5 03:19:59 26° SSE 03:23:22 42° ESE 03:29:51 10° NE
BREEZE-M DEB (TANK) 4.1 03:19:44 10° NW 03:23:26 82° NE 03:38:04 10° SE
Lacrosse 5 rocket 1.4 03:20:32 10° NW 03:24:54 67° SW 03:25:31 58° S
CZ-3 Stage 3 3.5 03:13:10 10° WSW 03:27:56 42° SSW 03:31:42 10° ESE
Cosmos 2219 4.2 03:25:14 23° SSE 03:28:13 39° ESE 03:33:30 10° NE
Cosmos 1933 4.0 03:24:18 10° N 03:28:14 52° E 03:29:57 30° SE
Cosmos 2322 4.4 03:25:04 10° NNW 03:30:40 54° ENE 03:36:16 10° SE
ATLAS CENTAUR R/B 4.0 03:27:32 10° N 03:31:24 25° NE 03:35:01 10° ESE
Centaur D-1A AC-32 4.1 03:32:17 24° S 03:33:06 25° SSE 03:42:19 10° ESE
Cosmos 1869 Rocket 4.0 03:33:16 33° SSE 03:35:01 57° E 03:39:22 10° NNE
Cosmos 923 Rocket 3.9 03:30:56 10° NNW 03:36:08 64° WSW 03:38:08 36° S
IRS-1C 4.1 03:31:10 10° N 03:36:29 69° WNW 03:38:29 39° SW
Cosmos 2221 Rocket 3.9 03:33:09 10° N 03:37:40 67° E 03:40:17 25° SSE
Spot 4 Rocket 4.0 03:33:28 10° NNE 03:38:38 89° ESE 03:40:49 36° SSW
ATLAS 5 CENTAUR R/B 1.9 03:37:19 42° SW 03:38:53 70° NW 03:44:06 10° NNE
GPS 2-05 Rocket1 3.7 03:41:58 35° SE 03:41:58 35° SE 03:44:17 10° ESE
Cosmos 1680 Rocket 3.4 03:39:25 10° NNW 03:44:36 71° WSW 03:47:39 25° S
Cosmos 1455 3.1 03:41:20 10° NNW 03:44:25 33° W 03:44:25 33° W
Resurs 1-4 Rocket 2.8 03:40:29 10° NNE 03:45:40 50° E 03:49:25 18° S
Cosmos 773 Rocket 4.4 03:41:45 10° NW 03:46:31 39° WSW 03:47:29 36° SW
Cosmos 2292 Rocket 3.7 03:53:53 34° WNW 03:53:55 34° WNW 03:57:15 10° N
Cosmos 1626 3.6 03:56:33 23° W 03:56:42 23° WNW 03:59:43 10° NNW
Cosmos 1346 3.9 03:56:55 36° WNW 03:56:55 36° WNW 03:59:41 10° N
Cosmos 1833 4.4 03:57:55 29° SW 04:00:49 61° WNW 04:06:32 10° NNE
ARIANE 5 R/B 2.4 03:57:27 10° N 04:02:33 79° WNW 04:05:28 25° SSW
COSMOS 2428 3.7 03:57:30 10° NNW 04:03:00 48° ENE 04:08:29 10° SE
Cosmos 304 Rocket 3.9 03:58:21 10° NNW 04:03:02 51° WSW 04:05:42 24° S
CRYOSAT 2 4.3 03:59:48 10° N 04:04:42 88° W 04:08:00 21° S
Cosmos 1703 Rocket 3.7 04:01:46 10° NNW 04:06:01 54° W 04:08:03 28° SSW
USA 215 3.9 04:00:07 10° NE 04:06:21 49° NW 04:11:25 16° WSW
GENESIS II 4.2 04:03:39 10° NW 04:07:44 65° WSW 04:11:43 10° SSE
IRS-1D 3.6 04:03:19 10° N 04:08:40 79° WNW 04:12:09 22° SSW
SME Rocket 4.4 04:03:03 10° SSE 04:09:26 54° ENE 04:13:52 10° N
OAO 3 Rocket 3.4 04:08:11 27° WSW 04:10:15 44° SSW 04:14:42 10° ESE
OE (NEXTSAT) 4.5 04:09:55 36° SW 04:11:10 65° SSE 04:14:45 10° ENE
Cosmos 1898 Rocket 3.4 04:09:12 23° SSW 04:12:31 89° NW 04:17:43 10° NNE
SL-16 R/B 3.3 04:09:36 10° NW 04:14:01 24° W 04:15:18 22° WSW
Cosmos 1937 Rocket 3.7 04:13:22 17° S 04:17:27 72° ESE 04:22:44 10° NNE
BREEZE-M DEB (TANK) 3.6 04:15:07 10° NW 04:17:55 27° NNE 04:19:55 10° E
Cosmos 292 Rocket 4.4 04:16:51 10° N 04:21:36 58° ENE 04:26:17 10° SSE
UNKNOWN OBJECT B 2.7 04:19:46 10° NNE 04:23:37 88° ESE 04:26:32 17° SSW
UNK 3.7 04:19:25 11° S 04:23:46 65° W 04:28:19 10° NNW
Cosmos 2154 Rocket 4.3 04:18:00 10° S 04:24:17 72° E 04:30:37 10° NNE
Cosmos 2322 Rocket 3.6 04:21:07 10° WNW 04:24:39 17° W 04:25:26 17° WSW
Cosmos 389 Rocket 3.3 04:21:25 10° N 04:25:04 55° E 04:28:40 10° SSE
Cosmos 1610 Rocket 4.5 04:19:41 13° S 04:25:20 79° W 04:31:37 10° N
Okean 1-7 3.2 04:21:07 10° NNW 04:25:24 54° W 04:28:49 15° SSW
Cosmos 2237 4.4 04:19:42 10° NNW 04:25:28 78° ENE 04:31:11 10° SSE
Cosmos 2219 Rocket 3.6 04:26:27 10° N 04:31:43 41° ENE 04:36:57 10° SE
AVUM R/B 3.9 04:31:04 17° SSE 04:32:11 27° ESE 04:34:03 10° NE
Cosmos 2150 Rocket 4.3 04:29:36 19° SW 04:33:21 55° WNW 04:38:39 10° N
SL-24 DEB 4.2 04:29:39 10° N 04:34:20 89° W 04:38:56 10° S
Cosmos 2074 Rocket 4.4 04:29:54 17° SW 04:34:25 45° WNW 04:40:24 10° N
Meteor 2-3 Rocket 3.8 04:30:01 13° SSW 04:35:17 74° W 04:41:07 10° N
ISS -2.4 04:32:58 10° WNW 04:35:48 27° SW 04:38:36 10° SSE
CZ-2D R/B 2.4 04:34:26 10° N 04:39:32 52° WNW 04:44:02 13° SW
SL-16 R/B 3.0 04:41:26 10° SSW 04:47:18 42° W 04:53:13 10° NNW
NOSS 3-1 (C) 4.0 04:41:44 10° SSW 04:47:21 53° ESE 04:53:30 10° NE
Cosmos 1674 Rocket 3.8 04:45:59 10° N 04:50:19 70° E 04:54:37 10° SSE
Okean O Rocket 1.6 04:49:36 10° N 04:54:01 72° WNW 04:58:23 10° SSW
Cosmos 2360 Rocket 3.0 04:49:30 10° NW 04:54:16 29° WSW 04:59:01 10° SSW
Meteor 2-10 Rocket 3.5 04:49:17 10° N 04:54:22 90° E 04:59:36 10° S
Cosmos 2227 Rocket 2.9 04:51:45 10° S 04:57:13 55° ESE 05:02:44 10° NNE
PSLV R/B 4.0 04:56:14 10° N 05:00:09 60° WNW 05:04:09 10° SSW
SWAS 4.5 04:57:27 10° NNW 05:01:47 90° ESE 05:06:05 10° SSE
ADEOS II 4.0 04:58:18 10° NE 05:02:53 30° E 05:07:26 10° SSE
Meteor 1-10 Rocket 4.3 04:58:15 10° N 05:04:00 85° W 05:09:50 10° S
GP-B 3.4 05:00:01 10° N 05:04:27 72° E 05:08:52 10° S
CZ-4B R/B 3.2 05:00:17 10° N 05:05:46 78° WNW 05:11:19 10° SSW
ATLAS CENTAUR R/B 2.0 05:06:25 10° NW 05:10:37 36° WSW 05:14:30 10° S
Cosmos 1238 Rocket 4.1 05:04:31 10° N 05:11:14 90° E 05:17:07 10° S
Cosmos 2333 4.3 05:05:45 10° NNW 05:11:17 59° WSW 05:16:52 10° S
Cosmos 2219 4.4 05:07:28 10° WSW 05:12:25 30° WNW 05:17:26 10° N
Cosmos 1782 2.8 05:10:40 10° NNW 05:14:41 73° W 05:18:38 10° S
CZ-4B R/B 3.0 05:10:53 10° N 05:14:58 70° WNW 05:19:14 10° SSW
Cosmos 1606 3.3 05:12:32 10° N 05:16:18 60° E 05:20:01 10° SSE
Cosmos 990 Rocket 4.5 05:13:31 10° SW 05:18:27 44° WNW 05:23:22 10° N
GPS 2-05 Rocket1 3.6 05:16:03 10° W 05:19:06 33° SSW 05:22:14 10° SE
Cosmos 2218 Rocket 4.2 05:16:16 10° S 05:22:23 79° E 05:28:34 10° N
